DW3458 Weather Reports


Display with metric or nautical units.
time (UTC)temp
F
wind
direction
speed
MPH
gust
MPH
rain 1hr
in
rain 24hr
in
rain mn
in
humidity
%
barometer
mb
20200705223508 91 145 0.0 4.0 0.00 0.00 0.00 60 1012.2
20200705223008 92 179 0.0 1.0 0.00 0.00 0.00 58 1012.3
20200705222501 92 179 0.0 1.0 0.00 0.00 0.00 58 1012.3
20200705221953 91 179 0.0 2.0 0.00 0.00 0.00 59 1012.3
20200705221445 92 179 1.0 3.0 0.00 0.00 0.00 58 1012.4
20200705220944 92 179 1.0 4.0 0.00 0.00 0.00 59 1012.6
20200705220436 92 197 0.0 2.0 0.00 0.00 0.00 57 1012.7
20200705215933 92 138 0.0 1.0 0.00 0.00 0.00 56 1012.7
20200705215433 92 138 0.0 1.0 0.00 0.00 0.00 61 1012.7
20200705214932 92 138 0.0 1.0 0.00 0.00 0.00 56 1012.7
20200705214435 92 138 0.0 1.0 0.00 0.00 0.00 61 1012.8
20200705213922 92 138 0.0 4.0 0.00 0.00 0.00 59 1012.7
20200705213419 92 138 0.0 4.0 0.00 0.00 0.00 61 1012.8
20200705212907 92 144 0.0 2.0 0.00 0.00 0.00 57 1012.9
20200705212357 92 144 0.0 2.0 0.00 0.00 0.00 57 1013.0
20200705211858 92 144 0.0 4.0 0.00 0.00 0.00 58 1013.0
20200705211349 92 144 1.0 4.0 0.00 0.00 0.00 64 1013.1
20200705210845 92 262 0.0 2.0 0.00 0.00 0.00 61 1013.1
20200705210334 91 262 0.0 2.0 0.00 0.00 0.00 59 1013.1
20200705205835 91 262 0.0 3.0 0.00 0.00 0.00 67 1013.2
20200705205333 91 262 1.0 3.0 0.00 0.00 0.00 62 1013.3
20200705204832 90 255 0.0 2.0 0.00 0.00 0.00 64 1013.3
20200705204317 90 244 0.0 2.0 0.00 0.00 0.00 65 1013.4
20200705203813 89 244 0.0 2.0 0.00 0.00 0.00 64 1013.3
20200705203307 89 245 0.0 1.0 0.00 0.00 0.00 61 1013.3
20200705202808 90 248 0.0 1.0 0.00 0.00 0.00 63 1013.5
20200705202254 91 248 0.0 2.0 0.00 0.00 0.00 62 1013.5
20200705201739 91 248 1.0 2.0 0.00 0.00 0.00 63 1013.6
20200705201242 91 249 0.0 4.0 0.00 0.00 0.00 62 1013.6
20200705200735 91 250 0.0 4.0 0.00 0.00 0.00 64 1013.8
20200705200234 91 244 0.0 2.0 0.00 0.00 0.00 61 1013.8
20200705195731 91 244 0.0 2.0 0.00 0.00 0.00 61 1013.9
20200705195206 90 244 0.0 2.0 0.00 0.00 0.00 67 1014.0
20200705194706 90 244 0.0 2.0 0.00 0.00 0.00 68 1013.9
20200705194204 89 244 0.0 1.0 0.00 0.00 0.00 66 1013.9
20200705193706 90 244 0.0 1.0 0.00 0.00 0.00 64 1014.0
20200705193201 90 244 0.0 1.0 0.00 0.00 0.00 63 1014.0
20200705192701 89 244 0.0 1.0 0.00 0.00 0.00 65 1013.9
20200705192155 89 244 0.0 1.0 0.00 0.00 0.00 66 1014.1
20200705191641 89 244 0.0 3.0 0.00 0.00 0.00 62 1014.2
20200705191609 89 244 0.0 3.0 0.00 0.00 0.00 62 1013.1
20200705191137 90 244 1.0 3.0 0.00 0.00 0.00 62 1014.1
20200705190635 90 219 1.0 4.0 0.00 0.00 0.00 62 1014.4
20200705190125 90 155 1.0 4.0 0.00 0.00 0.00 61 1014.4
20200705185619 90 138 1.0 5.0 0.00 0.00 0.00 61 1014.4
20200705185119 91 105 1.0 5.0 0.00 0.00 0.00 57 1014.4
20200705184625 90 85 0.0 5.0 0.00 0.00 0.00 61 1013.2
20200705184617 91 85 2.0 5.0 0.00 0.00 0.00 59 1014.4
20200705184119 90 98 2.0 5.0 0.00 0.00 0.00 58 1014.5
20200705183607 91 86 1.0 5.0 0.00 0.00 0.00 59 1014.5
20200705183103 91 96 1.0 2.0 0.00 0.00 0.00 59 1014.6
20200705182555 91 96 1.0 5.0 0.00 0.00 0.00 63 1014.5
20200705182046 90 96 1.0 5.0 0.00 0.00 0.00 62 1014.6
20200705181631 90 73 0.0 4.0 0.00 0.00 0.00 58 1013.4
20200705181534 90 73 1.0 4.0 0.00 0.00 0.00 58 1014.5
20200705181035 90 96 1.0 5.0 0.00 0.00 0.00 61 1014.7
20200705180528 90 96 1.0 5.0 0.00 0.00 0.00 61 1014.5
20200705180021 90 101 1.0 6.0 0.00 0.00 0.00 63 1014.6
20200705175522 89 77 2.0 6.0 0.00 0.00 0.00 62 1014.6
20200705175022 89 101 3.0 7.0 0.00 0.00 0.00 62 1014.6
20200705174552 89 102 4.0 7.0 0.00 0.00 0.00 59 1013.5
20200705174518 89 135 2.0 7.0 0.00 0.00 0.00 57 1014.6
20200705174018 90 102 2.0 8.0 0.00 0.00 0.00 60 1014.6
20200705173519 90 84 2.0 8.0 0.00 0.00 0.00 61 1014.7
20200705173015 91 95 1.0 5.0 0.00 0.00 0.00 62 1014.8
20200705172515 91 139 1.0 2.0 0.00 0.00 0.00 60 1014.8
20200705172014 91 139 0.0 2.0 0.00 0.00 0.00 61 1014.9
20200705171607 90 139 0.0 2.0 0.00 0.00 0.00 61 1013.7
20200705171518 91 139 0.0 2.0 0.00 0.00 0.00 62 1014.9
20200705171017 91 130 0.0 4.0 0.00 0.00 0.00 62 1014.8
20200705170510 90 130 1.0 5.0 0.00 0.00 0.00 63 1014.9
20200705170012 90 101 1.0 5.0 0.00 0.00 0.00 61 1014.8
20200705165507 90 88 1.0 5.0 0.00 0.00 0.00 58 1014.8
20200705165009 90 75 1.0 5.0 0.00 0.00 0.00 62 1014.9
20200705164546 90 105 0.0 2.0 0.00 0.00 0.00 59 1013.9
20200705164457 90 105 0.0 2.0 0.00 0.00 0.00 59 1015.0
20200705163938 90 105 0.0 4.0 0.00 0.00 0.00 62 1015.0
20200705163433 90 105 1.0 4.0 0.00 0.00 0.00 61 1015.1
20200705162933 90 111 0.0 4.0 0.00 0.00 0.00 63 1015.2
20200705162435 90 111 0.0 1.0 0.00 0.00 0.00 64 1015.1
20200705161925 90 111 0.0 2.0 0.00 0.00 0.00 64 1015.1
20200705161640 89 111 0.0 2.0 0.00 0.00 0.00 62 1014.0
20200705161413 90 111 0.0 2.0 0.00 0.00 0.00 63 1015.1
20200705160906 89 111 0.0 2.0 0.00 0.00 0.00 65 1015.1
20200705160408 89 111 0.0 2.0 0.00 0.00 0.00 62 1015.1
20200705155904 89 163 0.0 2.0 0.00 0.00 0.00 66 1015.2
20200705155407 88 163 0.0 2.0 0.00 0.00 0.00 65 1015.2
20200705154906 89 153 0.0 4.0 0.00 0.00 0.00 63 1015.1
20200705154550 88 153 0.0 4.0 0.00 0.00 0.00 66 1014.0
20200705154405 89 153 0.0 4.0 0.00 0.00 0.00 66 1015.1
20200705153904 88 127 0.0 2.0 0.00 0.00 0.00 64 1015.1
20200705153404 88 127 0.0 1.0 0.00 0.00 0.00 66 1015.1
20200705152904 88 127 0.0 1.0 0.00 0.00 0.00 66 1015.1
20200705152405 88 126 0.0 1.0 0.00 0.00 0.00 65 1015.1
20200705151905 88 127 0.0 2.0 0.00 0.00 0.00 64 1015.2
20200705151632 88 127 0.0 2.0 0.00 0.00 0.00 65 1014.0
20200705151358 88 127 0.0 2.0 0.00 0.00 0.00 67 1015.2
20200705150855 88 126 0.0 2.0 0.00 0.00 0.00 67 1015.2
20200705150357 88 126 0.0 4.0 0.00 0.00 0.00 67 1015.2
20200705145850 88 126 1.0 4.0 0.00 0.00 0.00 67 1015.2
20200705145351 88 126 0.0 4.0 0.00 0.00 0.00 69 1015.2
20200705144848 88 127 0.0 2.0 0.00 0.00 0.00 67 1015.2
20200705144342 87 127 0.0 2.0 0.00 0.00 0.00 68 1015.1
20200705143840 87 127 0.0 2.0 0.00 0.00 0.00 70 1015.1
20200705143344 86 127 0.0 2.0 0.00 0.00 0.00 70 1015.1
20200705142838 85 115 0.0 2.0 0.00 0.00 0.00 70 1015.0
20200705142340 85 115 0.0 0.0 0.00 0.00 0.00 72 1015.1
20200705141842 85 115 0.0 1.0 0.00 0.00 0.00 74 1015.1
20200705141335 85 115 0.0 2.0 0.00 0.00 0.00 73 1015.0
20200705140833 85 115 0.0 2.0 0.00 0.00 0.00 76 1015.0
20200705140334 84 82 0.0 2.0 0.00 0.00 0.00 76 1015.0
20200705135836 83 82 0.0 2.0 0.00 0.00 0.00 78 1014.9
20200705135333 83 82 0.0 2.0 0.00 0.00 0.00 78 1014.9
20200705134828 82 82 0.0 2.0 0.00 0.00 0.00 80 1014.8
20200705134325 82 82 0.0 2.0 0.00 0.00 0.00 81 1015.0
20200705133813 81 82 1.0 3.0 0.00 0.00 0.00 82 1015.0
20200705133312 80 82 2.0 3.0 0.00 0.00 0.00 83 1015.1
20200705132808 80 82 1.0 3.0 0.00 0.00 0.00 87 1014.9
20200705132308 78 82 0.0 2.0 0.00 0.00 0.00 91 1014.9
20200705131810 77 82 0.0 1.0 0.00 0.00 0.00 93 1014.7
20200705131304 76 82 0.0 0.0 0.00 0.00 0.00 94 1014.7
20200705130801 75 82 0.0 0.0 0.00 0.00 0.00 94 1014.8
20200705130259 75 82 0.0 0.0 0.00 0.00 0.00 95 1014.8
20200705125755 74 82 0.0 0.0 0.00 0.00 0.00 95 1014.8
20200705125245 74 82 0.0 0.0 0.00 0.00 0.00 95 1014.7
20200705124736 73 82 0.0 0.0 0.00 0.00 0.00 95 1014.7
20200705124236 73 82 0.0 0.0 0.00 0.00 0.00 96 1014.6
20200705123733 73 82 0.0 0.0 0.00 0.00 0.00 96 1014.6
20200705123233 72 82 0.0 0.0 0.00 0.00 0.00 96 1014.5
20200705122732 72 82 0.0 0.0 0.00 0.00 0.00 96 1014.4
20200705122237 72 82 0.0 0.0 0.00 0.00 0.00 96 1014.4
20200705121730 72 82 0.0 0.0 0.00 0.00 0.00 96 1014.3
20200705121232 71 82 0.0 0.0 0.00 0.00 0.00 96 1014.2
20200705120730 71 82 0.0 0.0 0.00 0.00 0.00 96 1014.1
20200705120231 71 82 0.0 0.0 0.00 0.00 0.00 96 1014.2
20200705115733 71 82 0.0 0.0 0.00 0.00 0.00 96 1014.2
20200705115233 70 82 0.0 0.0 0.00 0.00 0.00 96 1014.2
20200705114734 70 82 0.0 0.0 0.00 0.00 0.00 96 1014.2
20200705114233 70 82 0.0 0.0 0.00 0.00 0.00 96 1014.1
20200705113731 70 82 0.0 0.0 0.00 0.00 0.00 96 1014.1
20200705113232 70 82 0.0 4.0 0.00 0.00 0.00 96 1014.0
20200705112731 70 82 0.0 4.0 0.00 0.00 0.00 96 1014.0
20200705112225 69 94 0.0 0.0 0.00 0.00 0.00 96 1013.8
20200705111721 69 94 0.0 0.0 0.00 0.00 0.00 96 1013.7
20200705111212 69 94 0.0 0.0 0.00 0.00 0.00 96 1013.7
20200705110704 69 94 0.0 0.0 0.00 0.00 0.00 96 1013.7
20200705110205 69 94 0.0 0.0 0.00 0.00 0.00 95 1013.7
20200705105643 69 94 0.0 0.0 0.00 0.00 0.00 95 1013.6
20200705105133 69 94 0.0 0.0 0.00 0.00 0.00 95 1013.6
20200705104632 69 94 0.0 0.0 0.00 0.00 0.00 95 1013.4
20200705104130 69 94 0.0 0.0 0.00 0.00 0.00 95 1013.4
20200705103631 69 94 0.0 0.0 0.00 0.00 0.00 95 1013.4
20200705103132 69 94 0.0 0.0 0.00 0.00 0.00 95 1013.5
20200705102623 69 94 0.0 0.0 0.00 0.00 0.00 95 1013.5
20200705102105 69 94 0.0 0.0 0.00 0.00 0.00 95 1013.5
20200705101605 69 94 0.0 0.0 0.00 0.00 0.00 95 1013.5
20200705101104 69 94 0.0 0.0 0.00 0.00 0.00 95 1013.5
20200705100603 69 94 0.0 0.0 0.00 0.00 0.00 95 1013.5
20200705100106 70 94 0.0 0.0 0.00 0.00 0.00 95 1013.5
20200705095601 70 94 0.0 0.0 0.00 0.00 0.00 95 1013.5
20200705095033 70 94 0.0 0.0 0.00 0.00 0.00 95 1013.5
20200705094531 70 94 0.0 0.0 0.00 0.00 0.00 95 1013.3
20200705094030 70 94 0.0 0.0 0.00 0.00 0.00 95 1013.4
20200705093531 70 94 0.0 0.0 0.00 0.00 0.00 95 1013.4
20200705093033 70 94 0.0 0.0 0.00 0.00 0.00 95 1013.4
20200705092533 70 94 0.0 0.0 0.00 0.00 0.00 95 1013.3
20200705092031 70 94 0.0 0.0 0.00 0.00 0.00 95 1013.4
20200705091528 70 94 0.0 0.0 0.00 0.00 0.00 95 1013.3
20200705091005 70 94 0.0 0.0 0.00 0.00 0.00 95 1013.2
20200705090504 70 94 0.0 0.0 0.00 0.00 0.00 95 1013.3
20200705085934 70 94 0.0 0.0 0.00 0.00 0.00 95 1013.4
20200705085434 70 94 0.0 0.0 0.00 0.00 0.00 95 1013.3
20200705084911 70 94 0.0 0.0 0.00 0.00 0.00 95 1013.3
20200705084406 70 94 0.0 0.0 0.00 0.00 0.00 95 1013.3
20200705083838 70 94 0.0 0.0 0.00 0.00 0.00 95 1013.4
20200705083339 70 94 0.0 0.0 0.00 0.00 0.00 95 1013.4
20200705082833 70 94 0.0 0.0 0.00 0.00 0.00 95 1013.5
20200705082334 70 94 0.0 0.0 0.00 0.00 0.00 95 1013.5
20200705081831 70 94 0.0 0.0 0.00 0.00 0.00 95 1013.5
20200705081333 70 94 0.0 0.0 0.00 0.00 0.00 95 1013.5
20200705080832 70 94 0.0 0.0 0.00 0.00 0.00 95 1013.6
20200705080331 70 94 0.0 0.0 0.00 0.00 0.00 95 1013.6
20200705075834 70 94 0.0 0.0 0.00 0.00 0.00 95 1013.6
20200705075331 71 94 0.0 0.0 0.00 0.00 0.00 95 1013.5
20200705074830 71 94 0.0 0.0 0.00 0.00 0.00 95 1013.5
20200705074332 71 94 0.0 0.0 0.00 0.00 0.00 95 1013.5
20200705073830 71 94 0.0 0.0 0.00 0.00 0.00 94 1013.6
20200705073332 71 94 0.0 0.0 0.00 0.00 0.00 94 1013.6
20200705072832 71 94 0.0 0.0 0.00 0.00 0.00 94 1013.6
20200705072332 71 94 0.0 0.0 0.00 0.00 0.00 94 1013.5
20200705071831 71 94 0.0 0.0 0.00 0.00 0.00 94 1013.5
20200705071332 71 94 0.0 0.0 0.00 0.00 0.00 94 1013.6
20200705070831 71 94 0.0 0.0 0.00 0.00 0.00 94 1013.6
20200705070331 71 94 0.0 0.0 0.00 0.00 0.00 94 1013.7
20200705065831 71 94 0.0 0.0 0.00 0.00 0.00 94 1013.7
20200705065333 71 94 0.0 0.0 0.00 0.00 0.00 94 1013.6
20200705064832 71 94 0.0 0.0 0.00 0.00 0.00 94 1013.7
20200705064326 71 94 0.0 0.0 0.00 0.00 0.00 94 1013.7
20200705063814 71 94 0.0 0.0 0.00 0.00 0.00 94 1013.7
20200705063304 71 94 0.0 0.0 0.00 0.00 0.00 94 1013.7
20200705062802 71 94 0.0 0.0 0.00 0.00 0.00 94 1013.7
20200705062306 71 94 0.0 0.0 0.00 0.00 0.00 94 1013.8
20200705061805 71 94 0.0 0.0 0.00 0.00 0.00 94 1013.7
20200705061252 71 94 0.0 0.0 0.00 0.00 0.00 94 1013.6
20200705060735 71 94 0.0 0.0 0.00 0.00 0.00 93 1013.5
20200705060234 71 94 0.0 0.0 0.00 0.00 0.00 93 1013.4
20200705055733 71 94 0.0 0.0 0.00 0.00 0.00 93 1013.5
20200705055232 71 94 0.0 0.0 0.00 0.00 0.00 93 1013.5
20200705054733 71 94 0.0 0.0 0.00 0.00 0.00 93 1013.5
20200705054205 71 94 0.0 0.0 0.00 0.00 0.00 93 1013.4
20200705053657 71 94 0.0 0.0 0.00 0.00 0.00 93 1013.4
20200705053134 71 94 0.0 0.0 0.00 0.00 0.00 93 1013.4
20200705052634 71 94 0.0 0.0 0.00 0.00 0.00 93 1013.3
20200705052133 71 94 0.0 0.0 0.00 0.00 0.00 93 1013.4
20200705051631 71 94 0.0 0.0 0.00 0.00 0.00 93 1013.4
20200705051132 71 94 0.0 0.0 0.00 0.00 0.00 92 1013.4
20200705050606 72 94 0.0 0.0 0.00 0.00 0.00 92 1013.5
20200705050051 72 94 0.0 0.0 0.00 0.00 0.00 92 1013.4
20200705045547 72 94 0.0 0.0 0.00 0.00 0.00 92 1013.5
20200705045040 72 94 0.0 0.0 0.00 0.00 0.00 92 1013.3
20200705044536 72 94 0.0 0.0 0.00 0.00 0.00 91 1013.3
20200705044036 73 94 0.0 0.0 0.00 0.00 0.00 91 1013.3
20200705043532 73 94 0.0 0.0 0.00 0.00 0.00 91 1013.4
20200705043017 73 94 0.0 0.0 0.00 0.00 0.00 91 1013.3
20200705042511 73 94 0.0 0.0 0.00 0.00 0.00 91 1013.2
20200705041935 73 94 0.0 0.0 0.00 0.00 0.00 91 1013.2
20200705041442 74 94 0.0 0.0 0.00 0.00 0.00 90 1013.2
20200705040933 74 94 0.0 0.0 0.00 0.00 0.00 90 1013.3
20200705040424 74 94 0.0 0.0 0.00 0.00 0.00 90 1013.3
20200705040131 73 94 0.0 0.0 0.00 0.00 0.00 89 1012.8
20200705035909 74 94 0.0 0.0 0.00 0.00 0.00 89 1013.4
20200705035415 74 94 0.0 0.0 0.00 0.00 0.00 89 1013.5
20200705034911 74 94 0.0 0.0 0.00 0.00 0.00 89 1013.6
20200705034358 74 94 0.0 0.0 0.00 0.00 0.00 89 1013.6
20200705033855 74 94 0.0 0.0 0.00 0.00 0.00 88 1013.6
20200705033341 74 94 0.0 0.0 0.00 0.00 0.00 88 1013.7
20200705033109 74 94 0.0 0.0 0.00 0.00 0.00 88 1013.2
20200705032836 74 94 0.0 0.0 0.00 0.00 0.00 87 1013.6
20200705032316 74 94 0.0 0.0 0.00 0.00 0.00 87 1013.7
20200705031759 75 94 0.0 0.0 0.00 0.00 0.00 87 1013.7
20200705031307 75 94 0.0 0.0 0.00 0.00 0.00 87 1013.8
20200705030735 75 94 0.0 0.0 0.00 0.00 0.00 86 1013.8
20200705030238 75 94 0.0 0.0 0.00 0.00 0.00 86 1013.7
20200705030028 75 94 0.0 0.0 0.00 0.00 0.00 86 1013.1
20200705025743 76 94 0.0 0.0 0.00 0.00 0.00 86 1013.7
20200705025234 76 94 0.0 0.0 0.00 0.00 0.00 85 1013.6
20200705024743 76 94 0.0 0.0 0.00 0.00 0.00 84 1013.7
20200705024235 76 94 0.0 0.0 0.00 0.00 0.00 84 1013.6
20200705023735 77 94 0.0 0.0 0.00 0.00 0.00 84 1013.5
20200705023236 77 94 0.0 0.0 0.00 0.00 0.00 84 1013.6
20200705023016 76 94 0.0 0.0 0.00 0.00 0.00 84 1012.9
20200705022737 77 94 0.0 0.0 0.00 0.00 0.00 83 1013.5
20200705022237 77 94 0.0 0.0 0.00 0.00 0.00 82 1013.4
20200705021728 77 94 0.0 0.0 0.00 0.00 0.00 82 1013.4
20200705021209 78 94 0.0 0.0 0.00 0.00 0.00 81 1013.4
20200705020712 78 94 0.0 0.0 0.00 0.00 0.00 81 1013.3
20200705020202 78 94 0.0 0.0 0.00 0.00 0.00 80 1013.3
20200705015710 79 94 0.0 0.0 0.00 0.00 0.00 79 1013.2
20200705015157 80 94 0.0 0.0 0.00 0.00 0.00 80 1013.3
20200705014639 80 94 0.0 0.0 0.00 0.00 0.00 79 1013.3
20200705014141 81 94 0.0 0.0 0.00 0.00 0.00 76 1013.3
20200705013639 81 94 0.0 0.0 0.00 0.00 0.00 74 1013.3
20200705013142 82 94 0.0 0.0 0.00 0.00 0.00 73 1013.4
20200705012633 83 94 0.0 0.0 0.00 0.00 0.00 73 1013.4
20200705012135 83 94 0.0 0.0 0.00 0.00 0.00 71 1013.3
20200705011636 84 94 0.0 0.0 0.00 0.00 0.00 71 1013.3
20200705011133 85 94 0.0 0.0 0.00 0.00 0.00 69 1013.5
20200705010623 85 94 0.0 0.0 0.00 0.00 0.00 68 1013.4
20200705010117 86 94 0.0 0.0 0.00 0.00 0.00 68 1013.3
20200705005609 86 94 0.0 0.0 0.00 0.00 0.00 68 1013.4
20200705005109 87 94 0.0 0.0 0.00 0.00 0.00 67 1013.4
20200705004612 87 94 0.0 0.0 0.00 0.00 0.00 67 1013.5
20200705004110 87 94 0.0 0.0 0.00 0.00 0.00 68 1013.5
20200705003549 87 94 0.0 0.0 0.00 0.00 0.00 69 1013.5
20200705003049 87 94 0.0 0.0 0.00 0.00 0.00 66 1013.4
20200705002536 88 94 0.0 0.0 0.00 0.00 0.00 66 1013.4
20200705002036 88 94 0.0 0.0 0.00 0.00 0.00 67 1013.4
20200705001539 88 94 0.0 0.0 0.00 0.00 0.00 67 1013.4
20200705001037 88 94 0.0 0.0 0.00 0.00 0.00 63 1013.4
20200705000535 88 94 0.0 0.0 0.00 0.00 0.00 62 1013.5
20200705000033 88 94 0.0 0.0 0.00 0.00 0.00 62 1013.5
20200704235544 88 94 0.0 0.0 0.00 0.00 0.00 61 1013.6
20200704235043 88 94 0.0 0.0 0.00 0.00 0.00 61 1013.6
20200704234544 89 94 0.0 0.0 0.00 0.00 0.00 62 1013.5
20200704234035 89 94 0.0 0.0 0.00 0.00 0.00 62 1013.5
20200704233542 88 94 0.0 0.0 0.00 0.00 0.00 62 1013.5
20200704233013 88 94 0.0 0.0 0.00 0.00 0.00 61 1013.5
20200704232508 88 94 0.0 0.0 0.00 0.00 0.00 61 1013.6
20200704232008 88 94 0.0 0.0 0.00 0.00 0.00 61 1013.7
20200704231509 88 94 0.0 0.0 0.00 0.00 0.00 62 1013.6
20200704231005 88 94 0.0 2.0 0.00 0.00 0.00 61 1013.6
20200704230445 88 94 0.0 2.0 0.00 0.00 0.00 60 1013.5
20200704225934 89 94 0.0 2.0 0.00 0.00 0.00 61 1013.5
20200704225429 89 94 1.0 5.0 0.00 0.00 0.00 60 1013.5
20200704224928 89 94 1.0 5.0 0.00 0.00 0.00 54 1013.5
20200704224427 89 94 0.0 2.0 0.00 0.00 0.00 56 1013.6
20200704223929 89 94 0.0 0.0 0.00 0.00 0.00 56 1013.7